DMSP 5D-2 F13 DEB, 40469

Orbit data source: Space-Track

DMSP 5D-2 F13 DEB, 40469 is space debris in SSO originally from a launch on Fri, 24 Mar 1995 UTC launched from the Air Force Western Test Range (AFWTR). Debris objects in space refer to the collection of defunct objects orbiting the Earth. Examples of debris include non-operational satellites, rocket bodies, and fragments generated from explosions, collisions, or faulty payload assembly.

Loading next visibility...
Identifier
40469, 1995-015BM
Orbit
SSO
Country
Flag of USUS
Related business
Manufacturer
Unknown
Mission
Spacecraft
Bus & Motor
Unknown
Mass
Unknown
Launch date (UTC)
1995-03-24 (31 years ago)
Launch vehicle
Unknown
Launch site
Air Force Western Test Range (AFWTR)
Object type
Payload
Rocket body
Debris
Shape & HBR
Unknown shape, 0.1 m
Radar Cross Section
Small (<0.1 m²)

Expand to show TLE details & history
Last TLE update: 7 hours ago

TLE from 7 hours ago
0 DMSP 5D-2 F13 DEB
1 40469U 95015BM  26118.92328157  .00008562  00000-0  18161-2 0  9998
2 40469  98.5637 185.0707 0019891 238.3896 121.5362 14.59287516582113
Epoch: 2026-04-28T22:09Z
TLE epoch observation values (Epoch: 2026-04-28T22:09:31.527Z)
Latitude
Longitude
-4.20229°
Altitude
705.829 km
Speed
7.499 km/s
True Right ascension
12h 20m 16s
True Declination
0° 00' 00"
Sunlit
Object was in full shadow at epoch
Visualization orbit readout
Latitude
Unknown
Longitude
Unknown
Altitude
Unknown
Speed
Unknown
Apparent Right ascension
Unknown
Apparent Declination
Unknown
Sunlit
N/A
Visualization observer readout
Local Sidereal Time
13:05:47
Azimuth
Unknown
Elevation
Unknown
Doppler factor
Unknown
Orbital elements
Apogee altitude
706.639 km
Perigee altitude
678.51 km
Semi-major axis
7,070.712 km
Eccentricity
0.00199
Inclination
98.5637°
RAAN
185.0707°
Arg. of periapsis
238.3896°
True anomaly
121.73022°
Mean anomaly
121.5362°
Eccentric anomaly
121.63323°
Mean motion
3.65047 °/min
Orbital period
98.62 mins
BSTAR
0.0018161
Loading maneuver chart data...
Computing Atmospheric mass density...

Documentation

Showing up to 5 results
|